Location: Poughquag
(41.6090°N, 73.6820°W)
Time: 06:35:47
(UTC-05:00)

STRAND 1 - Pass Details

Date: 29 November 2023
Orbit: 766 x 778 km, 98.4° (Epoch: 24 February)

Event Time Altitude Azimuth Distance (km) Brightness Sun altitude
Rises 04:21:19 0° 125° (SE) 3,241 ? -29.0°
Reaches altitude 10° 04:24:11 10° 108° (ESE) 2,316 ? -28.5°
Maximum altitude 04:27:48 20° 63° (ENE) 1,735 ? -27.8°
Drops below altitude 10° 04:31:24 10° 18° (NNE) 2,321 ? -27.2°
Sets 04:34:16 0° 2° (N) 3,250 ? -26.6°
